contact:dominique.lefevre@mio.osupytheas.fr, maurice.libes@osupytheas.fr, didier.mallarino@osupytheas.fr
Project:EMSO http://www.emso-fr.org/EMSO-France
Depth: 2436.0 m
Title:EMSO Ligure Ouest : Data MII capteur MICROCAT
DateTime_Computer,Latitude,Longitude,Temperature,Conductivity,Pressure,DateTime_Instrument
DateTime_Computer,Latitude,Longitude,degC,S m-1,dbar,DateTime_Instrument
2023-04-12T00:00:38Z,42.805,6.029,13.3027,4.60083,2470.693,2023-4-12T02:03:33Z
2023-04-12T00:03:41Z,42.805,6.029,13.3028,4.60087,2470.763,2023-4-12T02:06:36Z
2023-04-12T00:06:44Z,42.805,6.029,13.3029,4.60084,2470.717,2023-4-12T02:09:39Z
2023-04-12T00:09:48Z,42.805,6.029,13.3031,4.60086,2470.73,2023-4-12T02:12:42Z
2023-04-12T00:12:51Z,42.805,6.029,13.3026,4.60084,2470.679,2023-4-12T02:15:45Z
2023-04-12T00:15:54Z,42.805,6.029,13.3030,4.60084,2470.73,2023-4-12T02:18:49Z
2023-04-12T00:18:57Z,42.805,6.029,13.3031,4.60086,2470.73,2023-4-12T02:21:52Z
2023-04-12T00:22:00Z,42.805,6.029,13.3028,4.60088,2470.717,2023-4-12T02:24:55Z
2023-04-12T00:25:03Z,42.805,6.029,13.3033,4.60084,2470.693,2023-4-12T02:27:58Z
2023-04-12T00:28:06Z,42.805,6.029,13.3032,4.60087,2470.73,2023-4-12T02:31:01Z
2023-04-12T00:31:09Z,42.805,6.029,13.3033,4.60086,2470.717,2023-4-12T02:34:04Z
2023-04-12T00:34:12Z,42.805,6.029,13.3030,4.60089,2470.73,2023-4-12T02:37:07Z
2023-04-12T00:37:15Z,42.805,6.029,13.3030,4.60086,2470.73,2023-4-12T02:40:10Z
2023-04-12T00:40:18Z,42.805,6.029,13.3029,4.60085,2470.74,2023-4-12T02:43:13Z
2023-04-12T00:43:21Z,42.805,6.029,13.3028,4.60086,2470.717,2023-4-12T02:46:16Z
2023-04-12T00:46:24Z,42.805,6.029,13.3031,4.60085,2470.707,2023-4-12T02:49:19Z
2023-04-12T00:49:28Z,42.805,6.029,13.3032,4.60084,2470.703,2023-4-12T02:52:22Z
2023-04-12T00:52:31Z,42.805,6.029,13.3029,4.60084,2470.754,2023-4-12T02:55:26Z
2023-04-12T00:55:34Z,42.805,6.029,13.3029,4.60084,2470.73,2023-4-12T02:58:29Z
2023-04-12T00:58:37Z,42.805,6.029,13.3030,4.60087,2470.707,2023-4-12T03:01:32Z
2023-04-12T01:01:40Z,42.805,6.029,13.3026,4.60089,2470.693,2023-4-12T03:04:35Z
2023-04-12T01:04:43Z,42.805,6.029,13.3029,4.60085,2470.67,2023-4-12T03:07:38Z
2023-04-12T01:07:46Z,42.805,6.029,13.3030,4.60084,2470.717,2023-4-12T03:10:41Z
2023-04-12T01:10:49Z,42.805,6.029,13.3027,4.60085,2470.754,2023-4-12T03:13:44Z
2023-04-12T01:13:52Z,42.805,6.029,13.3030,4.60084,2470.693,2023-4-12T03:16:47Z
2023-04-12T01:16:55Z,42.805,6.029,13.3032,4.60085,2470.717,2023-4-12T03:19:50Z
2023-04-12T01:19:58Z,42.805,6.029,13.3029,4.60084,2470.717,2023-4-12T03:22:53Z
2023-04-12T01:23:01Z,42.805,6.029,13.3031,4.60084,2470.717,2023-4-12T03:25:56Z
2023-04-12T01:26:04Z,42.805,6.029,13.3032,4.60088,2470.707,2023-4-12T03:28:59Z
2023-04-12T01:29:08Z,42.805,6.029,13.3032,4.60084,2470.67,2023-4-12T03:32:02Z
2023-04-12T01:32:11Z,42.805,6.029,13.3033,4.60090,2470.73,2023-4-12T03:35:06Z
2023-04-12T01:35:14Z,42.805,6.029,13.3025,4.60087,2470.717,2023-4-12T03:38:09Z
2023-04-12T01:38:17Z,42.805,6.029,13.3031,4.60084,2470.67,2023-4-12T03:41:12Z
2023-04-12T01:41:20Z,42.805,6.029,13.3029,4.60094,2470.717,2023-4-12T03:44:15Z
2023-04-12T01:44:23Z,42.805,6.029,13.3029,4.60085,2470.693,2023-4-12T03:47:18Z
2023-04-12T01:47:26Z,42.805,6.029,13.3027,4.60084,2470.73,2023-4-12T03:50:21Z
2023-04-12T01:50:29Z,42.805,6.029,13.3029,4.60087,2470.693,2023-4-12T03:53:24Z
2023-04-12T01:53:32Z,42.805,6.029,13.3030,4.60088,2470.67,2023-4-12T03:56:27Z
2023-04-12T01:56:35Z,42.805,6.029,13.3027,4.60086,2470.707,2023-4-12T03:59:30Z
2023-04-12T01:59:38Z,42.805,6.029,13.3031,4.60085,2470.684,2023-4-12T04:02:33Z
2023-04-12T02:02:41Z,42.805,6.029,13.3030,4.60085,2470.67,2023-4-12T04:05:36Z
2023-04-12T02:05:45Z,42.805,6.029,13.3027,4.60087,2470.717,2023-4-12T04:08:39Z
2023-04-12T02:08:48Z,42.805,6.029,13.3031,4.60084,2470.717,2023-4-12T04:11:43Z
2023-04-12T02:11:51Z,42.805,6.029,13.3031,4.60090,2470.67,2023-4-12T04:14:46Z
2023-04-12T02:14:54Z,42.805,6.029,13.3031,4.60084,2470.693,2023-4-12T04:17:49Z
2023-04-12T02:17:57Z,42.805,6.029,13.3029,4.60084,2470.693,2023-4-12T04:20:52Z
2023-04-12T02:21:00Z,42.805,6.029,13.3030,4.60084,2470.67,2023-4-12T04:23:55Z
2023-04-12T02:24:03Z,42.805,6.029,13.3030,4.60085,2470.693,2023-4-12T04:26:58Z
2023-04-12T02:27:06Z,42.805,6.029,13.3031,4.60086,2470.693,2023-4-12T04:30:01Z
2023-04-12T02:30:09Z,42.805,6.029,13.3033,4.60084,2470.67,2023-4-12T04:33:04Z
2023-04-12T02:33:12Z,42.805,6.029,13.3033,4.60084,2470.707,2023-4-12T04:36:07Z
2023-04-12T02:36:15Z,42.805,6.029,13.3026,4.60084,2470.707,2023-4-12T04:39:10Z
2023-04-12T02:39:18Z,42.805,6.029,13.3029,4.60085,2470.67,2023-4-12T04:42:13Z
2023-04-12T02:42:22Z,42.805,6.029,13.3029,4.60084,2470.67,2023-4-12T04:45:16Z
2023-04-12T02:45:25Z,42.805,6.029,13.3031,4.60085,2470.67,2023-4-12T04:48:19Z
2023-04-12T02:48:28Z,42.805,6.029,13.3028,4.60091,2470.67,2023-4-12T04:51:23Z
2023-04-12T02:51:31Z,42.805,6.029,13.3029,4.60084,2470.656,2023-4-12T04:54:26Z
2023-04-12T02:54:34Z,42.805,6.029,13.3029,4.60084,2470.707,2023-4-12T04:57:29Z
2023-04-12T02:57:37Z,42.805,6.029,13.3025,4.60084,2470.684,2023-4-12T05:00:32Z
2023-04-12T03:00:40Z,42.805,6.029,13.3029,4.60084,2470.684,2023-4-12T05:03:35Z
2023-04-12T03:03:43Z,42.805,6.029,13.3028,4.60086,2470.67,2023-4-12T05:06:38Z
2023-04-12T03:06:46Z,42.805,6.029,13.3030,4.60088,2470.684,2023-4-12T05:09:41Z
2023-04-12T03:09:49Z,42.805,6.029,13.3033,4.60085,2470.693,2023-4-12T05:12:44Z
2023-04-12T03:12:52Z,42.805,6.029,13.3028,4.60086,2470.707,2023-4-12T05:15:47Z
2023-04-12T03:15:55Z,42.805,6.029,13.3030,4.60084,2470.646,2023-4-12T05:18:50Z
2023-04-12T03:18:58Z,42.805,6.029,13.3034,4.60084,2470.661,2023-4-12T05:21:53Z
2023-04-12T03:22:02Z,42.805,6.029,13.3027,4.60086,2470.661,2023-4-12T05:24:56Z
2023-04-12T03:25:05Z,42.805,6.029,13.3029,4.60087,2470.624,2023-4-12T05:28:00Z
2023-04-12T03:28:08Z,42.805,6.029,13.3027,4.60087,2470.646,2023-4-12T05:31:03Z
2023-04-12T03:31:11Z,42.805,6.029,13.3028,4.60099,2470.624,2023-4-12T05:34:06Z
2023-04-12T03:34:14Z,42.805,6.029,13.3031,4.60094,2470.646,2023-4-12T05:37:09Z
2023-04-12T03:37:17Z,42.805,6.029,13.3031,4.60085,2470.707,2023-4-12T05:40:12Z
2023-04-12T03:40:20Z,42.805,6.029,13.3030,4.60083,2470.646,2023-4-12T05:43:15Z
2023-04-12T03:43:23Z,42.805,6.029,13.3029,4.60086,2470.624,2023-4-12T05:46:18Z
2023-04-12T03:46:26Z,42.805,6.029,13.3032,4.60087,2470.646,2023-4-12T05:49:21Z
2023-04-12T03:49:29Z,42.805,6.029,13.3029,4.60084,2470.684,2023-4-12T05:52:24Z
2023-04-12T03:52:32Z,42.805,6.029,13.3032,4.60084,2470.661,2023-4-12T05:55:27Z
2023-04-12T03:55:35Z,42.805,6.029,13.3026,4.60083,2470.67,2023-4-12T05:58:30Z
2023-04-12T03:58:38Z,42.805,6.029,13.3030,4.60084,2470.624,2023-4-12T06:01:33Z
2023-04-12T04:01:42Z,42.805,6.029,13.3028,4.60085,2470.646,2023-4-12T06:04:36Z
2023-04-12T04:04:45Z,42.805,6.029,13.3029,4.60084,2470.661,2023-4-12T06:07:40Z
2023-04-12T04:07:48Z,42.805,6.029,13.3031,4.60085,2470.624,2023-4-12T06:10:43Z
2023-04-12T04:10:51Z,42.805,6.029,13.3027,4.60087,2470.646,2023-4-12T06:13:46Z
2023-04-12T04:13:54Z,42.805,6.029,13.3031,4.60084,2470.67,2023-4-12T06:16:49Z
2023-04-12T04:16:57Z,42.805,6.029,13.3026,4.60083,2470.661,2023-4-12T06:19:52Z
2023-04-12T04:20:00Z,42.805,6.029,13.3029,4.60085,2470.633,2023-4-12T06:22:55Z
2023-04-12T04:23:03Z,42.805,6.029,13.3032,4.60084,2470.67,2023-4-12T06:25:58Z
2023-04-12T04:26:06Z,42.805,6.029,13.3031,4.60084,2470.661,2023-4-12T06:29:01Z
2023-04-12T04:29:09Z,42.805,6.029,13.3031,4.60094,2470.646,2023-4-12T06:32:04Z
2023-04-12T04:32:12Z,42.805,6.029,13.3028,4.60085,2470.637,2023-4-12T06:35:07Z
2023-04-12T04:35:15Z,42.805,6.029,13.3025,4.60082,2470.624,2023-4-12T06:38:10Z
2023-04-12T04:38:18Z,42.805,6.029,13.3026,4.60082,2470.637,2023-4-12T06:41:13Z
2023-04-12T04:41:22Z,42.805,6.029,13.3029,4.60084,2470.646,2023-4-12T06:44:17Z
2023-04-12T04:44:25Z,42.805,6.029,13.3029,4.60085,2470.6,2023-4-12T06:47:20Z
2023-04-12T04:47:28Z,42.805,6.029,13.3029,4.60084,2470.646,2023-4-12T06:50:23Z
2023-04-12T04:50:31Z,42.805,6.029,13.3027,4.60084,2470.6,2023-4-12T06:53:26Z
2023-04-12T04:53:34Z,42.805,6.029,13.3028,4.60084,2470.637,2023-4-12T06:56:29Z
2023-04-12T04:56:37Z,42.805,6.029,13.3029,4.60086,2470.646,2023-4-12T06:59:32Z
2023-04-12T04:59:40Z,42.805,6.029,13.3027,4.60084,2470.624,2023-4-12T07:02:35Z
2023-04-12T05:02:43Z,42.805,6.029,13.3029,4.60086,2470.661,2023-4-12T07:05:38Z
2023-04-12T05:05:46Z,42.805,6.029,13.3024,4.60082,2470.624,2023-4-12T07:08:41Z
2023-04-12T05:08:49Z,42.805,6.029,13.3029,4.60081,2470.646,2023-4-12T07:11:44Z
2023-04-12T05:11:52Z,42.805,6.029,13.3029,4.60083,2470.624,2023-4-12T07:14:47Z
2023-04-12T05:14:55Z,42.805,6.029,13.3026,4.60081,2470.646,2023-4-12T07:17:50Z
2023-04-12T05:17:58Z,42.805,6.029,13.3028,4.60081,2470.624,2023-4-12T07:20:53Z
2023-04-12T05:21:02Z,42.805,6.029,13.3026,4.60084,2470.624,2023-4-12T07:23:57Z
2023-04-12T05:24:05Z,42.805,6.029,13.3026,4.60082,2470.624,2023-4-12T07:27:00Z
2023-04-12T05:27:08Z,42.805,6.029,13.3029,4.60082,2470.577,2023-4-12T07:30:03Z
2023-04-12T05:30:11Z,42.805,6.029,13.3031,4.60084,2470.614,2023-4-12T07:33:06Z
2023-04-12T05:33:14Z,42.805,6.029,13.3028,4.60084,2470.624,2023-4-12T07:36:09Z
2023-04-12T05:36:17Z,42.805,6.029,13.3028,4.60082,2470.637,2023-4-12T07:39:12Z
2023-04-12T05:39:20Z,42.805,6.029,13.3031,4.60087,2470.624,2023-4-12T07:42:15Z
2023-04-12T05:42:23Z,42.805,6.029,13.3028,4.60083,2470.577,2023-4-12T07:45:18Z
2023-04-12T05:45:26Z,42.805,6.029,13.3026,4.60084,2470.614,2023-4-12T07:48:21Z
2023-04-12T05:48:29Z,42.805,6.029,13.3029,4.60081,2470.624,2023-4-12T07:51:24Z
2023-04-12T05:51:32Z,42.805,6.029,13.3027,4.60080,2470.6,2023-4-12T07:54:27Z
2023-04-12T05:54:35Z,42.805,6.029,13.3027,4.60081,2470.637,2023-4-12T07:57:30Z
2023-04-12T05:57:39Z,42.805,6.029,13.3028,4.60081,2470.6,2023-4-12T08:00:34Z
2023-04-12T06:00:42Z,42.805,6.029,13.3027,4.60091,2470.624,2023-4-12T08:03:37Z
2023-04-12T06:03:45Z,42.805,6.029,13.3029,4.60084,2470.614,2023-4-12T08:06:40Z
2023-04-12T06:06:48Z,42.805,6.029,13.3026,4.60081,2470.6,2023-4-12T08:09:43Z
2023-04-12T06:09:51Z,42.805,6.029,13.3027,4.60081,2470.614,2023-4-12T08:12:46Z
2023-04-12T06:12:54Z,42.805,6.029,13.3025,4.60080,2470.6,2023-4-12T08:15:49Z
2023-04-12T06:15:57Z,42.805,6.029,13.3027,4.60082,2470.591,2023-4-12T08:18:52Z
2023-04-12T06:19:00Z,42.805,6.029,13.3027,4.60094,2470.633,2023-4-12T08:21:55Z
2023-04-12T06:22:03Z,42.805,6.029,13.3023,4.60084,2470.624,2023-4-12T08:24:58Z
2023-04-12T06:25:06Z,42.805,6.029,13.3029,4.60083,2470.6,2023-4-12T08:28:01Z
2023-04-12T06:28:09Z,42.805,6.029,13.3024,4.60109,2470.624,2023-4-12T08:31:04Z
2023-04-12T06:31:12Z,42.805,6.029,13.3027,4.60083,2470.637,2023-4-12T08:34:07Z
2023-04-12T06:34:15Z,42.805,6.029,13.3029,4.60082,2470.624,2023-4-12T08:37:10Z
2023-04-12T06:37:19Z,42.805,6.029,13.3028,4.60084,2470.637,2023-4-12T08:40:14Z
2023-04-12T06:40:22Z,42.805,6.029,13.3025,4.60081,2470.6,2023-4-12T08:43:17Z
2023-04-12T06:43:25Z,42.805,6.029,13.3026,4.60080,2470.6,2023-4-12T08:46:20Z
2023-04-12T06:46:28Z,42.805,6.029,13.3029,4.60084,2470.614,2023-4-12T08:49:23Z
2023-04-12T06:49:31Z,42.805,6.029,13.3029,4.60081,2470.624,2023-4-12T08:52:26Z
2023-04-12T06:52:34Z,42.805,6.029,13.3026,4.60081,2470.6,2023-4-12T08:55:29Z
2023-04-12T06:55:37Z,42.805,6.029,13.3029,4.60081,2470.637,2023-4-12T08:58:32Z
2023-04-12T06:58:40Z,42.805,6.029,13.3028,4.60081,2470.624,2023-4-12T09:01:35Z
2023-04-12T07:01:43Z,42.805,6.029,13.3027,4.60080,2470.6,2023-4-12T09:04:38Z
2023-04-12T07:04:46Z,42.805,6.029,13.3029,4.60085,2470.624,2023-4-12T09:07:41Z
2023-04-12T07:07:49Z,42.805,6.029,13.3028,4.60084,2470.6,2023-4-12T09:10:44Z
2023-04-12T07:10:52Z,42.805,6.029,13.3029,4.60081,2470.646,2023-4-12T09:13:47Z
2023-04-12T07:13:55Z,42.805,6.029,13.3029,4.60080,2470.624,2023-4-12T09:16:51Z
2023-04-12T07:16:59Z,42.805,6.029,13.3028,4.60084,2470.624,2023-4-12T09:19:54Z
2023-04-12T07:20:02Z,42.805,6.029,13.3030,4.60086,2470.637,2023-4-12T09:22:57Z
2023-04-12T07:23:05Z,42.805,6.029,13.3030,4.60081,2470.633,2023-4-12T09:26:00Z
2023-04-12T07:26:08Z,42.805,6.029,13.3028,4.60086,2470.646,2023-4-12T09:29:03Z
2023-04-12T07:29:11Z,42.805,6.029,13.3030,4.60081,2470.661,2023-4-12T09:32:06Z
2023-04-12T07:32:14Z,42.805,6.029,13.3028,4.60081,2470.646,2023-4-12T09:35:09Z
2023-04-12T07:35:17Z,42.805,6.029,13.3032,4.60081,2470.6,2023-4-12T09:38:12Z
2023-04-12T07:38:20Z,42.805,6.029,13.3028,4.60082,2470.646,2023-4-12T09:41:15Z
2023-04-12T07:41:23Z,42.805,6.029,13.3031,4.60082,2470.637,2023-4-12T09:44:18Z
2023-04-12T07:44:26Z,42.805,6.029,13.3029,4.60079,2470.646,2023-4-12T09:47:21Z
2023-04-12T07:47:29Z,42.805,6.029,13.3031,4.60080,2470.646,2023-4-12T09:50:24Z
2023-04-12T07:50:32Z,42.805,6.029,13.3028,4.60080,2470.637,2023-4-12T09:53:28Z
2023-04-12T07:53:36Z,42.805,6.029,13.3027,4.60081,2470.646,2023-4-12T09:56:31Z
2023-04-12T07:56:39Z,42.805,6.029,13.3025,4.60081,2470.624,2023-4-12T09:59:34Z
2023-04-12T07:59:42Z,42.805,6.029,13.3029,4.60085,2470.646,2023-4-12T10:02:37Z
2023-04-12T08:02:45Z,42.805,6.029,13.3026,4.60086,2470.624,2023-4-12T10:05:40Z
2023-04-12T08:05:48Z,42.805,6.029,13.3025,4.60079,2470.67,2023-4-12T10:08:43Z
2023-04-12T08:08:51Z,42.805,6.029,13.3029,4.60081,2470.624,2023-4-12T10:11:46Z
2023-04-12T08:11:54Z,42.805,6.029,13.3026,4.60085,2470.67,2023-4-12T10:14:49Z
2023-04-12T08:14:57Z,42.805,6.029,13.3027,4.60084,2470.67,2023-4-12T10:17:52Z
2023-04-12T08:18:00Z,42.805,6.029,13.3031,4.60081,2470.646,2023-4-12T10:20:55Z
2023-04-12T08:21:03Z,42.805,6.029,13.3029,4.60084,2470.624,2023-4-12T10:23:58Z
2023-04-12T08:24:06Z,42.805,6.029,13.3031,4.60081,2470.624,2023-4-12T10:27:01Z
2023-04-12T08:27:09Z,42.805,6.029,13.3034,4.60081,2470.624,2023-4-12T10:30:04Z
2023-04-12T08:30:13Z,42.805,6.029,13.3027,4.60080,2470.684,2023-4-12T10:33:08Z
2023-04-12T08:33:16Z,42.805,6.029,13.3028,4.60080,2470.661,2023-4-12T10:36:11Z
2023-04-12T08:36:19Z,42.805,6.029,13.3028,4.60084,2470.684,2023-4-12T10:39:14Z
2023-04-12T08:39:22Z,42.805,6.029,13.3027,4.60090,2470.67,2023-4-12T10:42:17Z
2023-04-12T08:42:25Z,42.805,6.029,13.3024,4.60082,2470.707,2023-4-12T10:45:20Z
2023-04-12T08:45:28Z,42.805,6.029,13.3030,4.60086,2470.646,2023-4-12T10:48:23Z
2023-04-12T08:48:31Z,42.805,6.029,13.3027,4.60080,2470.67,2023-4-12T10:51:26Z
2023-04-12T08:51:34Z,42.805,6.029,13.3026,4.60080,2470.646,2023-4-12T10:54:29Z
2023-04-12T08:54:37Z,42.805,6.029,13.3028,4.60080,2470.67,2023-4-12T10:57:32Z
2023-04-12T08:57:40Z,42.805,6.029,13.3029,4.60080,2470.693,2023-4-12T11:00:35Z
2023-04-12T09:00:43Z,42.805,6.029,13.3028,4.60086,2470.661,2023-4-12T11:03:38Z
2023-04-12T09:03:46Z,42.805,6.029,13.3029,4.60083,2470.661,2023-4-12T11:06:42Z
2023-04-12T09:06:50Z,42.805,6.029,13.3031,4.60085,2470.67,2023-4-12T11:09:45Z
2023-04-12T09:09:53Z,42.805,6.029,13.3029,4.60092,2470.67,2023-4-12T11:12:48Z
2023-04-12T09:12:56Z,42.805,6.029,13.3029,4.60080,2470.684,2023-4-12T11:15:51Z
2023-04-12T09:15:59Z,42.805,6.029,13.3027,4.60080,2470.646,2023-4-12T11:18:54Z
2023-04-12T09:19:02Z,42.805,6.029,13.3030,4.60081,2470.67,2023-4-12T11:21:57Z
2023-04-12T09:22:05Z,42.805,6.029,13.3035,4.60086,2470.67,2023-4-12T11:25:00Z
2023-04-12T09:25:08Z,42.805,6.029,13.3031,4.60081,2470.646,2023-4-12T11:28:03Z
2023-04-12T09:28:11Z,42.805,6.029,13.3031,4.60085,2470.684,2023-4-12T11:31:06Z
2023-04-12T09:31:14Z,42.805,6.029,13.3031,4.60080,2470.67,2023-4-12T11:34:09Z
2023-04-12T09:34:17Z,42.805,6.029,13.3029,4.60081,2470.661,2023-4-12T11:37:12Z
2023-04-12T09:37:20Z,42.805,6.029,13.3033,4.60081,2470.684,2023-4-12T11:40:15Z
2023-04-12T09:40:23Z,42.805,6.029,13.3026,4.60080,2470.646,2023-4-12T11:43:19Z
2023-04-12T09:43:27Z,42.805,6.029,13.3031,4.60081,2470.693,2023-4-12T11:46:22Z
2023-04-12T09:46:30Z,42.805,6.029,13.3030,4.60081,2470.637,2023-4-12T11:49:25Z
2023-04-12T09:49:33Z,42.805,6.029,13.3027,4.60082,2470.67,2023-4-12T11:52:28Z
2023-04-12T09:52:36Z,42.805,6.029,13.3031,4.60081,2470.646,2023-4-12T11:55:31Z
2023-04-12T09:55:39Z,42.805,6.029,13.3027,4.60081,2470.646,2023-4-12T11:58:34Z
2023-04-12T09:58:42Z,42.805,6.029,13.3034,4.60081,2470.67,2023-4-12T12:01:37Z
2023-04-12T10:01:45Z,42.805,6.029,13.3031,4.60084,2470.693,2023-4-12T12:04:40Z
2023-04-12T10:04:48Z,42.805,6.029,13.3029,4.60083,2470.693,2023-4-12T12:07:43Z
2023-04-12T10:07:51Z,42.805,6.029,13.3029,4.60089,2470.684,2023-4-12T12:10:46Z
2023-04-12T10:10:54Z,42.805,6.029,13.3028,4.60084,2470.646,2023-4-12T12:13:49Z
2023-04-12T10:13:57Z,42.805,6.029,13.3030,4.60079,2470.693,2023-4-12T12:16:53Z
2023-04-12T10:17:00Z,42.805,6.029,13.3029,4.60081,2470.684,2023-4-12T12:19:56Z
2023-04-12T10:20:04Z,42.805,6.029,13.3027,4.60086,2470.646,2023-4-12T12:22:59Z
2023-04-12T10:23:07Z,42.805,6.029,13.3028,4.60080,2470.684,2023-4-12T12:26:02Z
2023-04-12T10:26:10Z,42.805,6.029,13.3029,4.60079,2470.73,2023-4-12T12:29:05Z
2023-04-12T10:29:13Z,42.805,6.029,13.3031,4.60079,2470.707,2023-4-12T12:32:08Z
2023-04-12T10:32:16Z,42.805,6.029,13.3030,4.60081,2470.646,2023-4-12T12:35:11Z
2023-04-12T10:35:19Z,42.805,6.029,13.3031,4.60080,2470.707,2023-4-12T12:38:14Z
2023-04-12T10:38:22Z,42.805,6.029,13.3029,4.60085,2470.67,2023-4-12T12:41:17Z
2023-04-12T10:41:25Z,42.805,6.029,13.3026,4.60081,2470.684,2023-4-12T12:44:20Z
2023-04-12T10:44:28Z,42.805,6.029,13.3029,4.60083,2470.646,2023-4-12T12:47:23Z
2023-04-12T10:47:31Z,42.805,6.029,13.3031,4.60081,2470.684,2023-4-12T12:50:26Z
2023-04-12T10:50:34Z,42.805,6.029,13.3029,4.60080,2470.693,2023-4-12T12:53:30Z
2023-04-12T10:53:37Z,42.805,6.029,13.3037,4.60086,2470.684,2023-4-12T12:56:33Z
2023-04-12T10:56:41Z,42.805,6.029,13.3029,4.60084,2470.67,2023-4-12T12:59:36Z
2023-04-12T10:59:44Z,42.805,6.029,13.3029,4.60082,2470.646,2023-4-12T13:02:39Z
2023-04-12T11:02:47Z,42.805,6.029,13.3033,4.60080,2470.67,2023-4-12T13:05:42Z
2023-04-12T11:05:50Z,42.805,6.029,13.3028,4.60092,2470.646,2023-4-12T13:08:45Z
2023-04-12T11:08:53Z,42.805,6.029,13.3029,4.60092,2470.693,2023-4-12T13:11:48Z
2023-04-12T11:11:56Z,42.805,6.029,13.3029,4.60084,2470.646,2023-4-12T13:14:51Z
2023-04-12T11:14:59Z,42.805,6.029,13.3029,4.60081,2470.67,2023-4-12T13:17:54Z
2023-04-12T11:18:02Z,42.805,6.029,13.3030,4.60079,2470.646,2023-4-12T13:20:57Z
2023-04-12T11:21:05Z,42.805,6.029,13.3029,4.60080,2470.646,2023-4-12T13:24:00Z
2023-04-12T11:24:08Z,42.805,6.029,13.3030,4.60087,2470.67,2023-4-12T13:27:03Z
2023-04-12T11:27:11Z,42.805,6.029,13.3032,4.60087,2470.67,2023-4-12T13:30:07Z
2023-04-12T11:30:14Z,42.805,6.029,13.3026,4.60090,2470.67,2023-4-12T13:33:10Z
2023-04-12T11:33:18Z,42.805,6.029,13.3029,4.60084,2470.67,2023-4-12T13:36:13Z
2023-04-12T11:36:21Z,42.805,6.029,13.3031,4.60088,2470.684,2023-4-12T13:39:16Z
2023-04-12T11:39:24Z,42.805,6.029,13.3028,4.60084,2470.67,2023-4-12T13:42:19Z
2023-04-12T11:42:27Z,42.805,6.029,13.3030,4.60079,2470.661,2023-4-12T13:45:22Z
2023-04-12T11:45:30Z,42.805,6.029,13.3030,4.60080,2470.646,2023-4-12T13:48:25Z
2023-04-12T11:48:33Z,42.805,6.029,13.3029,4.60084,2470.646,2023-4-12T13:51:28Z
2023-04-12T11:51:36Z,42.805,6.029,13.3029,4.60080,2470.684,2023-4-12T13:54:31Z
2023-04-12T11:54:39Z,42.805,6.029,13.3029,4.60080,2470.67,2023-4-12T13:57:34Z
2023-04-12T11:57:42Z,42.805,6.029,13.3029,4.60081,2470.67,2023-4-12T14:00:37Z
2023-04-12T12:00:45Z,42.805,6.029,13.3033,4.60081,2470.661,2023-4-12T14:03:41Z
2023-04-12T12:03:48Z,42.805,6.029,13.3030,4.60081,2470.646,2023-4-12T14:06:44Z
2023-04-12T12:06:51Z,42.805,6.029,13.3026,4.60081,2470.67,2023-4-12T14:09:47Z
2023-04-12T12:09:55Z,42.805,6.029,13.3029,4.60085,2470.646,2023-4-12T14:12:50Z
2023-04-12T12:12:58Z,42.805,6.029,13.3028,4.60081,2470.67,2023-4-12T14:15:53Z
2023-04-12T12:16:01Z,42.805,6.029,13.3028,4.60081,2470.67,2023-4-12T14:18:56Z
2023-04-12T12:19:04Z,42.805,6.029,13.3029,4.60083,2470.6,2023-4-12T14:21:59Z
2023-04-12T12:22:07Z,42.805,6.029,13.3029,4.60080,2470.646,2023-4-12T14:25:02Z
2023-04-12T12:25:10Z,42.805,6.029,13.3031,4.60081,2470.646,2023-4-12T14:28:05Z
2023-04-12T12:28:13Z,42.805,6.029,13.3026,4.60085,2470.684,2023-4-12T14:31:08Z
2023-04-12T12:31:15Z,42.805,6.029,13.3027,4.60082,2470.661,2023-4-12T14:34:10Z
2023-04-12T12:34:18Z,42.805,6.029,13.3025,4.60080,2470.646,2023-4-12T14:37:13Z
2023-04-12T12:37:21Z,42.805,6.029,13.3024,4.60081,2470.661,2023-4-12T14:40:16Z
2023-04-12T12:40:24Z,42.805,6.029,13.3029,4.60080,2470.6,2023-4-12T14:43:19Z
2023-04-12T12:43:27Z,42.805,6.029,13.3031,4.60081,2470.661,2023-4-12T14:46:22Z
2023-04-12T12:46:30Z,42.805,6.029,13.3025,4.60081,2470.646,2023-4-12T14:49:25Z
2023-04-12T12:49:33Z,42.805,6.029,13.3031,4.60081,2470.67,2023-4-12T14:52:28Z
2023-04-12T12:52:36Z,42.805,6.029,13.3031,4.60081,2470.624,2023-4-12T14:55:32Z
2023-04-12T12:55:39Z,42.805,6.029,13.3033,4.60081,2470.624,2023-4-12T14:58:35Z
2023-04-12T12:58:42Z,42.805,6.029,13.3028,4.60081,2470.646,2023-4-12T15:01:38Z
2023-04-12T13:01:46Z,42.805,6.029,13.3033,4.60082,2470.646,2023-4-12T15:04:41Z
2023-04-12T13:04:49Z,42.805,6.029,13.3029,4.60081,2470.637,2023-4-12T15:07:44Z
2023-04-12T13:07:52Z,42.805,6.029,13.3026,4.60082,2470.661,2023-4-12T15:10:47Z
2023-04-12T13:10:55Z,42.805,6.029,13.3031,4.60081,2470.624,2023-4-12T15:13:50Z
2023-04-12T13:13:58Z,42.805,6.029,13.3026,4.60081,2470.661,2023-4-12T15:16:53Z
2023-04-12T13:17:01Z,42.805,6.029,13.3032,4.60081,2470.624,2023-4-12T15:19:56Z
2023-04-12T13:20:04Z,42.805,6.029,13.3029,4.60085,2470.624,2023-4-12T15:22:59Z
2023-04-12T13:23:07Z,42.805,6.029,13.3028,4.60081,2470.624,2023-4-12T15:26:02Z
2023-04-12T13:26:10Z,42.805,6.029,13.3030,4.60080,2470.624,2023-4-12T15:29:05Z
2023-04-12T13:29:13Z,42.805,6.029,13.3029,4.60080,2470.646,2023-4-12T15:32:09Z
2023-04-12T13:32:16Z,42.805,6.029,13.3027,4.60083,2470.614,2023-4-12T15:35:12Z
2023-04-12T13:35:20Z,42.805,6.029,13.3028,4.60080,2470.624,2023-4-12T15:38:15Z
2023-04-12T13:38:23Z,42.805,6.029,13.3029,4.60089,2470.624,2023-4-12T15:41:18Z
2023-04-12T13:41:26Z,42.805,6.029,13.3031,4.60081,2470.624,2023-4-12T15:44:21Z
2023-04-12T13:44:29Z,42.805,6.029,13.3029,4.60081,2470.624,2023-4-12T15:47:24Z
2023-04-12T13:47:32Z,42.805,6.029,13.3029,4.60080,2470.637,2023-4-12T15:50:27Z
2023-04-12T13:50:35Z,42.805,6.029,13.3031,4.60081,2470.6,2023-4-12T15:53:30Z
2023-04-12T13:53:38Z,42.805,6.029,13.3032,4.60082,2470.6,2023-4-12T15:56:33Z
2023-04-12T13:56:41Z,42.805,6.029,13.3029,4.60081,2470.624,2023-4-12T15:59:36Z
2023-04-12T13:59:44Z,42.805,6.029,13.3029,4.60082,2470.624,2023-4-12T16:02:39Z
2023-04-12T14:02:47Z,42.805,6.029,13.3026,4.60092,2470.6,2023-4-12T16:05:43Z
2023-04-12T14:05:50Z,42.805,6.029,13.3031,4.60081,2470.637,2023-4-12T16:08:46Z
2023-04-12T14:08:53Z,42.805,6.029,13.3030,4.60081,2470.624,2023-4-12T16:11:49Z
2023-04-12T14:11:57Z,42.805,6.029,13.3029,4.60081,2470.624,2023-4-12T16:14:52Z
2023-04-12T14:15:00Z,42.805,6.029,13.3028,4.60081,2470.614,2023-4-12T16:17:55Z
2023-04-12T14:18:03Z,42.805,6.029,13.3026,4.60084,2470.6,2023-4-12T16:20:58Z
2023-04-12T14:21:06Z,42.805,6.029,13.3029,4.60082,2470.577,2023-4-12T16:24:01Z
2023-04-12T14:24:09Z,42.805,6.029,13.3031,4.60081,2470.6,2023-4-12T16:27:04Z
2023-04-12T14:27:12Z,42.805,6.029,13.3029,4.60089,2470.6,2023-4-12T16:30:07Z
2023-04-12T14:30:15Z,42.805,6.029,13.3028,4.60083,2470.637,2023-4-12T16:33:10Z
2023-04-12T14:33:18Z,42.805,6.029,13.3030,4.60082,2470.577,2023-4-12T16:36:13Z
2023-04-12T14:36:21Z,42.805,6.029,13.3026,4.60081,2470.624,2023-4-12T16:39:16Z
2023-04-12T14:39:24Z,42.805,6.029,13.3031,4.60081,2470.6,2023-4-12T16:42:20Z
2023-04-12T14:42:27Z,42.805,6.029,13.3026,4.60081,2470.614,2023-4-12T16:45:23Z
2023-04-12T14:45:31Z,42.805,6.029,13.3029,4.60081,2470.591,2023-4-12T16:48:26Z
2023-04-12T14:48:34Z,42.805,6.029,13.3026,4.60081,2470.6,2023-4-12T16:51:29Z
2023-04-12T14:51:37Z,42.805,6.029,13.3028,4.60081,2470.614,2023-4-12T16:54:32Z
2023-04-12T14:54:40Z,42.805,6.029,13.3031,4.60083,2470.591,2023-4-12T16:57:35Z
2023-04-12T14:57:43Z,42.805,6.029,13.3027,4.60093,2470.614,2023-4-12T17:00:38Z
2023-04-12T15:00:46Z,42.805,6.029,13.3026,4.60081,2470.591,2023-4-12T17:03:41Z
2023-04-12T15:03:49Z,42.805,6.029,13.3027,4.60082,2470.624,2023-4-12T17:06:44Z
2023-04-12T15:06:52Z,42.805,6.029,13.3029,4.60081,2470.6,2023-4-12T17:09:47Z
2023-04-12T15:09:55Z,42.805,6.029,13.3025,4.60084,2470.577,2023-4-12T17:12:50Z
2023-04-12T15:12:58Z,42.805,6.029,13.3029,4.60099,2470.6,2023-4-12T17:15:53Z